Torna al catalogo

KPLO

AttivoScienzaVLEO
NORAD 53365·PAYLOAD·🇰🇷 South Korea

Lanciato Aug 4, 2022 da Cape Canaveral Space Force Station

Loading…

Prossimi Passaggi (prossime 24 ore)

TLE

ObsoletoSource: Space-Track

Epoca: Aug 4, 2022, 23:16 UTC

1 53365U 22094A   22216.96995833  .00001843 -58274-5  00000-0 0  9992
2 53365  29.5000 147.2458 0003300 140.4700 307.5200 16.09976711    07

Traccia KPLO in tempo reale con AllMySat

Download on the App Store